2023/01/01 00:00:00,39.7, 0.1
2023/01/01 00:10:00,39.5, 0.3
2023/01/01 00:20:00,39.2, 0.4
2023/01/01 00:30:00,39.2, 0.2
2023/01/01 00:40:00,39.3, 0.3
2023/01/01 00:50:00,39.2,-0.3
2023/01/01 01:00:00,39.1,-0.5
2023/01/01 01:10:00,38.9,-0.8
2023/01/01 01:20:00,38.9,-1.0
2023/01/01 01:30:00,38.9,-1.1
2023/01/01 01:40:00,38.8,-0.8
2023/01/01 01:50:00,38.9,-0.5
2023/01/01 02:00:00,38.9,-0.7
2023/01/01 02:10:00,38.9,-0.7
2023/01/01 02:20:00,38.8,-0.4
2023/01/01 02:30:00,38.7,-0.6
2023/01/01 02:40:00,38.7,-0.8
2023/01/01 02:50:00,38.7,-0.3
2023/01/01 03:00:00,38.7,-0.4
2023/01/01 03:10:00,38.6,-0.6
2023/01/01 03:20:00,38.6,-0.3
2023/01/01 03:30:00,38.6,-0.2
2023/01/01 03:40:00,38.5,-0.3
2023/01/01 03:50:00,38.6, 0.4
2023/01/01 04:00:00,38.6, 0.5
2023/01/01 04:10:00,38.6, 0.9
2023/01/01 04:20:00,38.5, 0.0
2023/01/01 04:30:00,38.5, 0.7
2023/01/01 04:40:00,38.6, 0.6
2023/01/01 04:50:00,38.5, 0.0
2023/01/01 05:00:00,38.5,-0.2
2023/01/01 05:10:00,38.4, 0.0
2023/01/01 05:20:00,38.4,-0.2
2023/01/01 05:30:00,38.3,-0.2
2023/01/01 05:40:00,38.3,-0.1
2023/01/01 05:50:00,38.3, 0.0
2023/01/01 06:00:00,38.3, 0.0
2023/01/01 06:10:00,38.3,-0.1
2023/01/01 06:20:00,38.2, 0.1
2023/01/01 06:30:00,38.2,-0.1
2023/01/01 06:40:00,38.2, 0.0
2023/01/01 06:50:00,38.1, 0.0
2023/01/01 07:00:00,38.2, 0.5
2023/01/01 07:10:00,38.2, 1.1
2023/01/01 07:20:00,38.2, 1.2
2023/01/01 07:30:00,38.4, 1.2
2023/01/01 07:40:00,38.3, 1.3
2023/01/01 07:50:00,38.2, 1.1
2023/01/01 08:00:00,38.2, 1.3
2023/01/01 08:10:00,38.3, 1.5
2023/01/01 08:20:00,38.3, 1.6
2023/01/01 08:30:00,38.2, 1.3
2023/01/01 08:40:00,38.2, 1.6
2023/01/01 08:50:00,38.1, 1.9
2023/01/01 09:00:00,38.2, 2.0
2023/01/01 09:10:00,38.2, 1.9
2023/01/01 09:20:00,38.1, 1.9
2023/01/01 09:30:00,38.0, 2.0
2023/01/01 09:40:00,38.0, 2.0
2023/01/01 09:50:00,37.8, 1.9
2023/01/01 10:00:00,37.7, 2.1
2023/01/01 10:10:00,37.7, 2.0
2023/01/01 10:20:00,37.8, 2.4
2023/01/01 10:30:00,37.8, 2.8
2023/01/01 10:40:00,37.6, 2.4
2023/01/01 10:50:00,37.7, 2.7
2023/01/01 11:00:00,37.7, 2.8
2023/01/01 11:10:00,37.7, 3.3
2023/01/01 11:20:00,37.5, 3.5
2023/01/01 11:30:00,37.5, 3.7
2023/01/01 11:40:00,37.4, 4.3
2023/01/01 11:50:00,37.4, 4.2
2023/01/01 12:00:00,37.2, 3.5
2023/01/01 12:10:00,37.2, 3.5
2023/01/01 12:20:00,37.2, 2.9
2023/01/01 12:30:00,37.2, 3.1
2023/01/01 12:40:00,37.2, 3.2
2023/01/01 12:50:00,36.8, 4.2
2023/01/01 13:00:00,37.0, 4.6
2023/01/01 13:10:00,36.9, 4.1
2023/01/01 13:20:00,37.1, 3.2
2023/01/01 13:30:00,37.1, 2.9
2023/01/01 13:40:00,37.1, 2.8
2023/01/01 13:50:00,37.1, 3.0
2023/01/01 14:00:00,37.1, 2.6
2023/01/01 14:10:00,37.1, 2.4
2023/01/01 14:20:00,37.0, 2.8
2023/01/01 14:30:00,37.0, 2.8
2023/01/01 14:40:00,37.0, 2.6
2023/01/01 14:50:00,37.0, 2.5
2023/01/01 15:00:00,37.0, 2.5
2023/01/01 15:10:00,37.0, 2.3
2023/01/01 15:20:00,37.1, 2.3
2023/01/01 15:30:00,36.9, 2.4
2023/01/01 15:40:00,36.9, 2.3
2023/01/01 15:50:00,36.9, 2.4
2023/01/01 16:00:00,36.9, 2.4
2023/01/01 16:10:00,36.9, 2.0
2023/01/01 16:20:00,37.0, 2.3
2023/01/01 16:30:00,37.0, 2.2
2023/01/01 16:40:00,37.1, 2.0
2023/01/01 16:50:00,37.0, 1.9
2023/01/01 17:00:00,37.0, 1.9
2023/01/01 17:10:00,37.0, 1.8
2023/01/01 17:20:00,37.0, 1.8
2023/01/01 17:30:00,37.0, 1.5
2023/01/01 17:40:00,37.0, 1.6
2023/01/01 17:50:00,36.9, 1.9
2023/01/01 18:00:00,36.8, 1.4
2023/01/01 18:10:00,36.8, 1.6
2023/01/01 18:20:00,36.8, 1.6
2023/01/01 18:30:00,36.8, 1.7
2023/01/01 18:40:00,36.8, 1.6
2023/01/01 18:50:00,36.7, 1.5
2023/01/01 19:00:00,36.7, 1.7
2023/01/01 19:10:00,36.7, 1.7
2023/01/01 19:20:00,36.7, 1.5
2023/01/01 19:30:00,36.7, 1.2
2023/01/01 19:40:00,36.7, 1.3
2023/01/01 19:50:00,36.7, 0.9
2023/01/01 20:00:00,36.7, 1.2
2023/01/01 20:10:00,36.7, 1.1
2023/01/01 20:20:00,36.6, 1.1
2023/01/01 20:30:00,36.7, 1.0
2023/01/01 20:40:00,36.6, 1.1
2023/01/01 20:50:00,36.6, 1.1
2023/01/01 21:00:00,36.7, 1.4
2023/01/01 21:10:00,36.6, 1.1
2023/01/01 21:20:00,36.6, 1.1
2023/01/01 21:30:00,36.6, 1.1
2023/01/01 21:40:00,36.6, 1.3
2023/01/01 21:50:00,36.6, 1.2
2023/01/01 22:00:00,36.6, 1.2
2023/01/01 22:10:00,36.6, 1.4
2023/01/01 22:20:00,36.5, 1.4
2023/01/01 22:30:00,36.5, 1.1
2023/01/01 22:40:00,36.5, 0.9
2023/01/01 22:50:00,36.5, 1.5
2023/01/01 23:00:00,36.5, 1.4
2023/01/01 23:10:00,36.5, 1.4
2023/01/01 23:20:00,36.5, 1.4
2023/01/01 23:30:00,36.5, 1.2
2023/01/01 23:40:00,36.5, 1.3
2023/01/01 23:50:00,36.7, 1.4
